2020-058B (46233 NORAD) Tracking and Keplerian Element Data

This shows tracking and keplerian element data for the satellite.

Feedback or suggestion? Click here.




ElementValue
Catalog46233
Name2020-058B
Epoch Orbit498
Epoch Day268.93083625
Epoch Year2020
RAAN316.4573
Inclination97.4995
Eccentricity0.0017167
Argument of Perigee150.44
Mean Anonmoly334.4906
Mean Motion15.24065176
Decay Rate2.25E-06
L11 46233U 20058B 20268.93083625 .00000225 00000-0 12236-4 0 9994
L22 46233 97.4995 316.4573 0017167 150.4400 334.4906 15.24065176 4985

Live tracking and technical data element details for 2020-058B (NORAD 46233). 2020-058B can be tracked NOW for your location showing map with azimuth and elevation plus other details from your city location.

Track the satellite on the map from your city or location and see movement details for azimuth, elevation, latitude, longitude, range, height, and movement on the map or in text.







IsCatalogInMostPopularTable: catalog: 46233, numindb: 5
Update: records affected: 1



GetName: 46233 2020-058B

Hit Count: updated at: Sat, 26 Sep 2020 14:56:10 GMT